Weather History for Pipestone, MN

Change the Weather History Date:

Tuesday, January 22, 2013

  Actual Average Record
Temperature  
Mean Temperature 5 °F -  
Max Temperature 12 °F 21 °F 51 °F (2002)
Min Temperature -2 °F 6 °F -11 °F (2008)
Degree Days  
Heating Degree Days 60    
Moisture  
Dew Point -2 °F    
Average Humidity 71    
Maximum Humidity 92    
Minimum Humidity 56    
Precipitation  
Precipitation 0.00 in - - ()
Sea Level Pressure  
Sea Level Pressure 30.22 in    
Wind  
Wind Speed 6 mph (WSW)    
Max Wind Speed 13 mph    
Max Gust Speed -    
Visibility 10 miles    
Events Snow    
Averages and records for this station are not official NWS values.
T = Trace of Precipitation, MM = Missing Value Source: NWS Daily Summary

Daily Weather History Graph

Daily Weather History Graph

Search for Another Location

Airport:

Trip Planner

Search our weather history database for the weather conditions in past years. The results will help you decide how hot, cold, wet, or windy it might be!

Date:

Astronomy

Jan. 22, 2013 Rise Set
Actual Time 7:51 AM CST 5:22 PM CST
Civil Twilight 7:20 AM CST 5:53 PM CST
Nautical Twilight 6:45 AM CST 6:29 PM CST
Astronomical Twilight 6:10 AM CST 7:03 PM CST
Moon 1:44 PM CST (1/22) 4:15 AM CST (1/22)
Length of Visible Light 10h 33m
Length of Day
9h 30m
Waxing Gibbous, 83% of the Moon is Illuminated
Jan 22
Waxing Gibbous
Jan 26
Full
Feb 3
Last Quarter
Feb 10
New
Feb 17
First Quarter

Hourly Weather History & Observations

Time (CST) Temp. Windchill Dew Point Humidity Pressure Visibility Wind Dir Wind Speed Gust Speed Precip Events Conditions
12:13 AM 1.4 °F -12.5 °F -5.8 °F 72% 30.25 in 10.0 mi NW 8.1 mph - N/A   Clear
12:34 AM 1.4 °F -13.5 °F -5.8 °F 72% 30.24 in 10.0 mi NNW 9.2 mph - N/A   Clear
12:53 AM 1.4 °F -14.5 °F -5.8 °F 72% 30.24 in 10.0 mi NNW 10.4 mph - N/A   Clear
1:13 AM 1.4 °F -12.5 °F -5.8 °F 72% 30.25 in 10.0 mi North 8.1 mph - N/A   Clear
1:34 AM 1.4 °F -12.5 °F -7.6 °F 66% 30.25 in 10.0 mi NNW 8.1 mph - N/A   Scattered Clouds
1:53 AM 1.4 °F -11.3 °F -7.6 °F 66% 30.25 in 10.0 mi NNW 6.9 mph - N/A   Scattered Clouds
2:13 AM 1.4 °F -12.5 °F -7.6 °F 66% 30.25 in 10.0 mi NNW 8.1 mph - N/A   Clear
2:34 AM 1.4 °F -11.3 °F -7.6 °F 66% 30.25 in 10.0 mi NNW 6.9 mph - N/A   Clear
2:53 AM 1.4 °F -8.3 °F -5.8 °F 72% 30.25 in 10.0 mi North 4.6 mph - N/A   Clear
3:13 AM 1.4 °F -6.2 °F -7.6 °F 66% 30.26 in 10.0 mi NNW 3.5 mph - N/A   Clear
3:34 AM 1.4 °F - -7.6 °F 66% 30.25 in 10.0 mi Calm Calm - N/A   Clear
3:53 AM -0.4 °F - -7.6 °F 72% 30.25 in 10.0 mi Calm Calm - N/A   Clear
4:10 AM -0.4 °F - -7.6 °F 72% 30.25 in 10.0 mi Calm Calm - N/A   Clear
4:31 AM -2.2 °F - -7.6 °F 78% 30.25 in 10.0 mi Calm Calm - N/A   Clear
4:53 AM -2.2 °F - -7.6 °F 78% 30.25 in 10.0 mi Calm Calm - N/A   Clear
5:13 AM -2.2 °F - -7.6 °F 78% 30.25 in 10.0 mi Calm Calm - N/A   Clear
5:33 AM -0.4 °F - -7.6 °F 72% 30.25 in 10.0 mi Calm Calm - N/A   Clear
5:54 AM -2.2 °F - -7.6 °F 78% 30.25 in 10.0 mi Calm Calm - N/A   Scattered Clouds
6:13 AM -0.4 °F - -7.6 °F 72% 30.25 in 10.0 mi Calm Calm - N/A   Scattered Clouds
6:33 AM -0.4 °F - -5.8 °F 78% 30.27 in 10.0 mi Calm Calm - N/A   Clear
6:54 AM 1.4 °F -6.2 °F -7.6 °F 66% 30.26 in 10.0 mi NW 3.5 mph - N/A   Clear
7:13 AM 1.4 °F -8.3 °F -7.6 °F 66% 30.25 in 10.0 mi NNW 4.6 mph - N/A   Clear
7:33 AM 1.4 °F -6.2 °F -7.6 °F 66% 30.26 in 10.0 mi NW 3.5 mph - N/A   Clear
7:53 AM 1.4 °F - -7.6 °F 66% 30.25 in 10.0 mi Calm Calm - N/A   Clear
8:13 AM 1.4 °F - -7.6 °F 66% 30.25 in 10.0 mi Calm Calm - N/A   Scattered Clouds
8:34 AM 1.4 °F -6.2 °F -7.6 °F 66% 30.26 in 10.0 mi West 3.5 mph - N/A   Mostly Cloudy
8:53 AM 1.4 °F -9.9 °F -7.6 °F 66% 30.26 in 10.0 mi West 5.8 mph - N/A   Mostly Cloudy
9:13 AM 1.4 °F -6.2 °F -7.6 °F 66% 30.26 in 10.0 mi WNW 3.5 mph - N/A   Scattered Clouds
9:34 AM 3.2 °F -6.2 °F -5.8 °F 66% 30.26 in 10.0 mi West 4.6 mph - N/A   Clear
9:53 AM 3.2 °F -6.2 °F -5.8 °F 66% 30.28 in 10.0 mi West 4.6 mph - N/A   Clear
10:13 AM 3.2 °F -6.2 °F -5.8 °F 66% 30.28 in 10.0 mi West 4.6 mph - N/A   Clear
10:34 AM 5.0 °F -5.6 °F -5.8 °F 61% 30.28 in 10.0 mi West 5.8 mph - N/A   Clear
10:53 AM 5.0 °F -4.1 °F -5.8 °F 61% 30.28 in 10.0 mi WSW 4.6 mph - N/A   Clear
11:13 AM 6.8 °F -0.1 °F -5.8 °F 56% 30.28 in 10.0 mi West 3.5 mph - N/A   Scattered Clouds
11:34 AM 6.8 °F -2.0 °F -4.0 °F 61% 30.27 in 10.0 mi West 4.6 mph - N/A   Scattered Clouds
11:53 AM 8.6 °F 0.1 °F -2.2 °F 62% 30.27 in 10.0 mi WSW 4.6 mph - N/A   Scattered Clouds
12:13 PM 8.6 °F -1.3 °F -2.2 °F 62% 30.25 in 10.0 mi West 5.8 mph - N/A   Scattered Clouds
12:34 PM 8.6 °F -2.6 °F -2.2 °F 62% 30.24 in 10.0 mi SW 6.9 mph - N/A   Overcast
12:53 PM 8.6 °F -3.7 °F -2.2 °F 62% 30.24 in 10.0 mi WSW 8.1 mph - N/A   Overcast
1:13 PM 8.6 °F -3.7 °F -0.4 °F 67% 30.23 in 10.0 mi West 8.1 mph - N/A   Overcast
1:34 PM 10.4 °F -1.5 °F -0.4 °F 62% 30.22 in 10.0 mi WSW 8.1 mph - N/A   Overcast
1:53 PM 10.4 °F 0.8 °F -0.4 °F 62% 30.21 in 10.0 mi SW 5.8 mph - N/A   Overcast
2:14 PM 10.4 °F -0.4 °F 1.4 °F 67% 30.21 in 10.0 mi WSW 6.9 mph - N/A   Mostly Cloudy
2:33 PM 10.4 °F -0.4 °F 1.4 °F 67% 30.20 in 10.0 mi SW 6.9 mph - N/A   Overcast
2:53 PM 10.4 °F 0.8 °F 1.4 °F 67% 30.20 in 10.0 mi SW 5.8 mph - N/A   Overcast
3:13 PM 10.4 °F 0.8 °F 1.4 °F 67% 30.20 in 10.0 mi SW 5.8 mph - N/A   Overcast
3:33 PM 10.4 °F 0.8 °F 1.4 °F 67% 30.20 in 10.0 mi SW 5.8 mph - N/A   Overcast
3:53 PM 10.4 °F 2.2 °F 1.4 °F 67% 30.20 in 10.0 mi WSW 4.6 mph - N/A   Overcast
4:13 PM 10.4 °F 0.8 °F 1.4 °F 67% 30.19 in 10.0 mi SW 5.8 mph - N/A   Overcast
4:33 PM 10.4 °F 0.8 °F 1.4 °F 67% 30.19 in 10.0 mi SSW 5.8 mph - N/A Snow Light Snow
4:54 PM 10.4 °F 2.2 °F 3.2 °F 73% 30.19 in 10.0 mi SSW 4.6 mph - N/A Snow Light Snow
5:13 PM 10.4 °F 0.8 °F 3.2 °F 73% 30.19 in 10.0 mi SSW 5.8 mph - N/A Snow Light Snow
5:33 PM 10.4 °F -1.5 °F 3.2 °F 73% 30.18 in 10.0 mi SSW 8.1 mph - N/A Snow Light Snow
5:53 PM 10.4 °F -1.5 °F 3.2 °F 73% 30.18 in 10.0 mi SSW 8.1 mph - N/A   Overcast
6:13 PM 10.4 °F -2.4 °F 3.2 °F 73% 30.18 in 10.0 mi SSW 9.2 mph - N/A   Overcast
6:33 PM 10.4 °F -1.5 °F 3.2 °F 73% 30.17 in 10.0 mi SSW 8.1 mph - N/A Snow Light Snow
6:53 PM 10.4 °F -1.5 °F 5.0 °F 79% 30.17 in 10.0 mi SSW 8.1 mph - N/A Snow Light Snow
7:13 PM 10.4 °F -2.4 °F 5.0 °F 79% 30.18 in 10.0 mi SW 9.2 mph - N/A Snow Light Snow
7:53 PM 10.4 °F -0.4 °F 6.8 °F 85% 30.16 in 10.0 mi SSW 6.9 mph - N/A Snow Light Snow
8:13 PM 10.4 °F -3.3 °F 6.8 °F 85% 30.15 in 10.0 mi SSW 10.4 mph - N/A Snow Light Snow
8:33 PM 10.4 °F -1.5 °F 6.8 °F 85% 30.14 in 10.0 mi SSW 8.1 mph - N/A   Overcast
8:53 PM 12.2 °F -1.8 °F 6.8 °F 79% 30.14 in 10.0 mi SSW 11.5 mph - N/A   Overcast
9:13 PM 12.2 °F -1.0 °F 6.8 °F 79% 30.14 in 10.0 mi SSW 10.4 mph - N/A   Overcast
9:33 PM 12.2 °F -1.0 °F 6.8 °F 79% 30.13 in 10.0 mi SSW 10.4 mph - N/A   Overcast
9:53 PM 12.2 °F -1.0 °F 8.6 °F 85% 30.13 in 10.0 mi SSW 10.4 mph - N/A   Overcast
10:13 PM 12.2 °F -1.8 °F 8.6 °F 85% 30.13 in 10.0 mi SW 11.5 mph - N/A   Overcast
10:53 PM 12.2 °F -2.5 °F 8.6 °F 85% 30.11 in 10.0 mi SW 12.7 mph - N/A   Overcast
11:13 PM 12.2 °F -2.5 °F 8.6 °F 85% 30.11 in 10.0 mi SW 12.7 mph - N/A   Overcast
11:34 PM 12.2 °F -2.5 °F 10.4 °F 92% 30.11 in 10.0 mi SW 12.7 mph - N/A   Overcast
11:53 PM 12.2 °F -2.5 °F 10.4 °F 92% 30.11 in 10.0 mi SW 12.7 mph - N/A   Overcast